www.pogodaiklimat.ru

Погода и климат >> Архив погоды >> Испания >> Оренсе


ПОГОДА в Оренсе

  • Прогноз погоды в Оренсе
  • Монитор погоды в Оренсе

АРХИВ ПОГОДЫ в Оренсе

Время (UTC), дата Ветер
(напр.,м/с)
 
Видим.   Явления Облачность Т
(С)
Тd
(С)
f
(%)
Тe
(С)
Тes
(С)
Комфортность P
(гПа)
Po
(гПа)
Тmin
(С)
Tmax
(С)
R
(мм)
R24
(мм)
S
(см)
07 19.06 ЮВ 2 20 км н/о +16.6 +13.9 84 +17 +17 1013.8 996.5
08 19.06 ЮЗ 2 20 км н/о +17.8 +13.9 78 +18 +18 1014.2 997.0
09 19.06 Ю 2 20 км н/о +18.7 +13.8 73 +20 +20 1014.1 996.9
10 19.06 З 1 20 км н/о +19.6 +13.1 66 +23 +23 комфорт 1014.3 997.2
11 19.06 З 2 20 км н/о +19.6 +13.5 68 +22 +22 комфорт 1014.9 997.8
12 19.06 З 2 20 км н/о +20.5 +13.5 64 +24 +24 комфорт 1015.0 997.9
13 19.06 З 3 20 км н/о +21.0 +13.9 64 +24 +24 комфорт 1015.0 997.9
14 19.06 ЮЗ 2 20 км н/о +20.4 +13.6 65 +23 +23 комфорт 1015.2 998.1
15 19.06 Ю 1 20 км н/о +20.6 +13.5 64 +24 +24 комфорт 1015.2 998.1 0.0
16 19.06 З 2 20 км в посл. час дождь н/о +20.5 +13.5 64 +24 +24 комфорт 1015.2 998.1 0.0
17 19.06 З 1 20 км н/о +20.4 +13.8 66 +24 +24 комфорт 1015.3 998.2
18 19.06 С 1 20 км дымка н/о +20.2 +13.2 64 +23 +23 комфорт 1015.3 998.2 +21.3 0.0
19 19.06 З 2 20 км н/о +19.9 +13.1 65 +23 +23 комфорт 1015.5 998.4
20 19.06 ЮЗ 1 20 км н/о +19.3 +13.5 69 +22 +22 комфорт 1015.6 998.4
21 19.06 ЮЗ 1 20 км н/о +18.7 +13.5 72 +21 +21 комфорт 1016.0 998.8
22 19.06 ЮВ 1 20 км н/о +18.3 +13.6 74 +20 +20 1016.2 999.0
23 19.06 Ю 1 20 км н/о +17.7 +13.6 77 +19 +19 1016.5 999.2
00 20.06 штиль 0 19 км н/о +17.2 +13.5 79 +17 +17 1016.3 999.0
01 20.06 ЮЗ 1 20 км н/о +16.7 +13.4 81 +18 +18 1016.3 999.0
02 20.06 ЮВ 1 20 км н/о +16.2 +13.3 83 +18 +18 1016.1 998.7
03 20.06 штиль 0 19 км н/о +15.8 +13.3 85 +16 +16 1015.8 998.4
04 20.06 З 1 20 км н/о +15.6 +13.4 87 +16 +16 1015.7 998.3
05 20.06 Ю 1 19 км н/о +15.4 +13.2 87 +17 +17 1015.9 998.5
06 20.06 ЮЗ 1 20 км н/о +15.8 +13.6 87 +17 +17 1015.7 998.3 +15.4
07 20.06 ЮЗ 1 19 км н/о +16.6 +13.5 82 +18 +18 1015.9 998.6
08 20.06 СЗ 1 19 км н/о +18.3 +12.9 71 +20 +20 1015.6 998.4
09 20.06 С 1 16 км н/о +19.5 +12.7 65 +22 +22 комфорт 1015.4 998.2
10 20.06 С 2 20 км н/о +21.6 +12.7 57 +24 +24 комфорт 1015.2 998.2 0.0
11 20.06 СЗ 2 20 км н/о +22.0 +13.1 57 +25 +25 комфорт 1015.1 998.1
12 20.06 С 1 16 км дымка н/о +23.4 +12.4 50 +26 +26 жарко 1014.8 997.9 0.0
13 20.06 С 1 20 км н/о +23.6 +12.9 51 +26 +26 жарко 1014.4 997.5
14 20.06 С 1 20 км н/о +24.7 +13.3 49 +27 +27 жарко 1014.0 997.2
15 20.06 С 2 20 км н/о +25.1 +12.7 46 +27 +27 жарко 1013.8 997.0
16 20.06 СВ 1 20 км н/о +22.9 +11.9 50 +25 +25 комфорт 1014.0 997.1
17 20.06 СВ 2 9000 м дождь н/о +20.8 +13.7 64 +24 +24 комфорт 1014.7 997.6 0.4
18 20.06 З 1 20 км в посл. час дождь н/о +19.0 +13.2 69 +21 +21 комфорт 1015.2 998.0 +25.2 1
19 20.06 СЗ 1 20 км н/о +18.7 +13.3 71 +21 +21 комфорт 1015.3 998.1
20 20.06 З 1 19 км слаб. дождь н/о +17.9 +13.8 77 +19 +19 1015.8 998.6 0.4
21 20.06 СВ 1 19 км слаб. дождь н/о +17.1 +12.6 75 +19 +19 1016.7 999.4 0.6
22 20.06 Ю 1 20 км н/о +16.2 +12.9 81 +18 +18 1017.6 1000.2
23 20.06 Ю 1 20 км н/о +15.8 +12.0 78 +17 +17 1017.8 1000.4
00 21.06 С 1 20 км дымка н/о +15.5 +11.5 77 +17 +17 1018.0 1000.6
01 21.06 З 1 20 км н/о +14.5 +11.5 82 +15 +15 1018.3 1000.8
02 21.06 ЮВ 1 20 км н/о +13.8 +11.7 87 +15 +15 1018.3 1000.8
03 21.06 Ю 1 20 км н/о +13.8 +12.0 89 +15 +15 1018.3 1000.8
04 21.06 С 1 20 км н/о +14.1 +11.8 86 +15 +15 1018.2 1000.7
05 21.06 ЮЗ 1 20 км н/о +14.1 +12.1 88 +15 +15 1018.3 1000.8
06 21.06 штиль 0 20 км дымка н/о +14.2 +11.9 86 +14 +14 1018.8 1001.3 +13.7
07 21.06 Ю 1 20 км н/о +14.9 +12.2 84 +15 +15 1019.0 1001.5
08 21.06 Ю 1 20 км н/о +16.1 +12.1 77 +17 +17 1019.2 1001.8
09 21.06 ЮЗ 1 20 км н/о +17.6 +12.7 73 +19 +19 1018.8 1001.5
10 21.06 З 2 20 км н/о +19.4 +12.4 64 +21 +21 комфорт 1018.3 1001.1
11 21.06 С 1 20 км н/о +21.3 +11.6 54 +23 +23 комфорт 1017.9 1000.8 0.0
12 21.06 С 1 20 км дымка н/о +22.9 +11.6 49 +25 +25 комфорт 1017.4 1000.4 0.0
13 21.06 З 2 20 км н/о +25.0 +10.8 41 +26 +26 жарко 1016.7 999.8 0.0
14 21.06 С 2 20 км н/о +25.4 +10.8 40 +26 +26 жарко 1016.0 999.2
15 21.06 СЗ 2 19 км н/о +26.7 +11.2 38 +28 +28 жарко 1015.6 998.8 0.0
16 21.06 З 2 20 км н/о +26.8 +10.9 37 +28 +28 жарко 1015.2 998.5 0.0
17 21.06 С 2 19 км н/о +27.3 +10.9 36 +28 +28 жарко 1014.6 997.9 0.0
18 21.06 ЮЗ 2 20 км дымка н/о +28.0 +11.1 35 +29 +29 жарко 1014.5 997.8 +28.0 0.0
19 21.06 З 2 20 км н/о +25.9 +10.9 39 +27 +27 жарко 1014.8 998.0
20 21.06 З 2 20 км н/о +23.9 +12.8 50 +26 +26 жарко 1015.3 998.4
21 21.06 СВ 1 20 км н/о +22.1 +12.6 55 +25 +25 комфорт 1015.7 998.7
22 21.06 ЮВ 1 20 км н/о +20.3 +12.8 62 +24 +24 комфорт 1016.0 998.9
23 21.06 З 1 20 км н/о +17.9 +12.3 70 +19 +19 1015.8 998.5
00 22.06 Ю 1 20 км н/о +16.6 +12.3 76 +18 +18 1015.8 998.5
01 22.06 ЮВ 1 20 км н/о +15.2 +11.8 80 +16 +16 1015.7 998.3
02 22.06 В 1 20 км н/о +14.3 +11.4 83 +15 +15 1015.6 998.1
03 22.06 ЮВ 1 20 км н/о +13.7 +11.2 85 +15 +15 1015.4 997.9
04 22.06 ЮЗ 1 20 км н/о +13.2 +10.9 86 +14 +14 1015.0 997.5
05 22.06 ЮВ 1 20 км н/о +12.9 +11.0 88 +14 +14 1014.3 996.8
06 22.06 ЮВ 1 20 км н/о +13.1 +11.2 88 +14 +14 1014.6 997.1 +12.9
07 22.06 ЮЗ 1 20 км н/о +14.3 +12.0 86 +15 +15 1014.3 996.9
08 22.06 СЗ 1 20 км н/о +16.6 +12.7 78 +17 +17 1014.1 996.8
09 22.06 С 1 20 км н/о +19.8 +13.3 66 +23 +23 комфорт 1013.1 996.0
10 22.06 С 1 20 км н/о +22.1 +14.5 62 +25 +25 комфорт 1012.5 995.6
11 22.06 С 2 20 км н/о +23.1 +13.8 56 +27 +27 душно 1011.8 994.9
12 22.06 С 1 20 км н/о +25.4 +14.2 50 +28 +28 жарко 1011.0 994.3
13 22.06 З 3 20 км н/о +27.6 +14.6 45 +30 +30 жарко 1010.3 993.7
14 22.06 ЮЗ 4 20 км н/о +27.0 +13.0 42 +29 +29 жарко 1010.1 993.5 0.0
15 22.06 ЮЗ 3 20 км н/о +27.0 +13.4 43 +29 +29 жарко 1010.2 993.6 0.0
16 22.06 ЮЗ 2 20 км н/о +25.0 +10.8 41 +26 +26 жарко 1010.5 993.7
17 22.06 ЮЗ 2 20 км н/о +24.1 +11.1 44 +25 +25 комфорт 1010.3 993.5
18 22.06 ЮВ 1 20 км дымка н/о +23.5 +9.8 42 +25 +25 комфорт 1010.6 993.7 +28.2
19 22.06 ЮЗ 1 20 км н/о +22.9 +7.4 37 +24 +24 комфорт 1010.9 994.0
20 22.06 ЮЗ 1 20 км в посл. час дождь н/о +21.8 +10.0 47 +23 +23 комфорт 1010.9 993.9 0.0
21 22.06 ЮЗ 1 20 км н/о +20.6 +10.7 53 +23 +23 комфорт 1011.2 994.2 0.0
22 22.06 З 1 20 км н/о +19.7 +10.9 57 +22 +22 комфорт 1011.3 994.2
23 22.06 ЮЗ 1 20 км в посл. час дождь н/о +19.1 +10.6 58 +21 +21 комфорт 1011.3 994.2 0.0
00 23.06 ЮВ 2 2200 м сильн. дождь н/о +16.6 +12.9 79 +17 +17 1012.6 995.3 2
01 23.06 В 1 4100 м дождь н/о +14.9 +12.2 84 +15 +15 1012.2 994.8 4
02 23.06 Ю 1 4000 м дождь н/о +14.4 +12.4 88 +15 +15 1011.3 993.9 2
03 23.06 С 1 18 км слаб. морось {дождь} н/о +14.4 +12.9 91 +15 +15 1011.5 994.1 8
04 23.06 Ю 1 20 км н/о +14.3 +13.0 92 +15 +15 1011.3 993.9
05 23.06 В 1 20 км в посл. час морось н/о +14.4 +13.3 93 +15 +15 1010.8 993.4 0.2
06 23.06 С 1 18 км слаб. дождь н/о +14.5 +13.4 93 +16 +16 1010.8 993.4 +14.2 0.8
07 23.06 СВ 2 1600 м сильн. дождь н/о +14.6 +13.5 93 +14 +14 1011.3 993.9 5
08 23.06 СВ 1 4000 м дождь н/о +15.0 +14.0 94 +16 +16 1011.6 994.3 4
09 23.06 З 1 20 км в посл. час морось {дождь} н/о +16.3 +14.7 90 +18 +18 1011.8 994.5 8
10 23.06 З 1 20 км в посл. час дождь н/о +18.4 +15.5 83 +21 +21 комфорт 1011.3 994.2 0.0
11 23.06 Ю 1 20 км н/о +21.0 +16.6 76 +26 +26 душно 1011.2 994.2
12 23.06 ЮЗ 1 19 км дымка н/о +21.2 +16.6 75 +25 +25 комфорт 1011.6 994.6 0.0
13 23.06 Ю 2 20 км н/о +21.6 +15.7 69 +25 +25 комфорт 1011.4 994.5
14 23.06 ЮЗ 2 20 км в посл. час дождь н/о +22.4 +16.4 69 +27 +27 душно 1011.2 994.3 0.0
15 23.06 З 2 20 км н/о +24.7 +15.9 58 +28 +28 душно 1010.7 993.9 0.0
16 23.06 ЮЗ 2 20 км н/о +25.3 +15.0 53 +28 +28 жарко 1010.3 993.6
17 23.06 ЮЗ 3 20 км н/о +24.2 +13.4 51 +26 +26 жарко 1010.5 993.7
18 23.06 ЮЗ 1 20 км дымка н/о +23.0 +13.5 55 +26 +26 жарко 1011.0 994.1 +25.8
19 23.06 ЮЗ 2 20 км н/о +21.7 +13.3 59 +24 +24 комфорт 1011.6 994.6
20 23.06 Ю 1 20 км н/о +20.7 +13.9 65 +24 +24 комфорт 1011.7 994.7
21 23.06 ЮЗ 1 20 км н/о +19.8 +14.2 70 +23 +23 комфорт 1012.5 995.4
22 23.06 З 1 20 км н/о +19.2 +14.7 75 +22 +22 комфорт 1013.1 996.0
23 23.06 Ю 1 18 км н/о +18.4 +14.7 79 +21 +21 комфорт 1013.3 996.1
00 24.06 штиль 0 19 км н/о +17.8 +14.5 81 +18 +18 1013.4 996.2
01 24.06 ЮВ 1 20 км н/о +17.4 +14.3 82 +19 +19 1013.2 996.0
02 24.06 З 2 20 км н/о +16.8 +13.7 82 +17 +17 1012.6 995.3
03 24.06 В 1 20 км н/о +16.5 +13.6 83 +17 +17 1012.7 995.4
04 24.06 Ю 1 14 км н/о +16.0 +13.5 85 +17 +17 1012.8 995.5
05 24.06 З 1 19 км н/о +15.6 +13.1 85 +16 +16 1012.9 995.6
06 24.06 Ю 1 19 км н/о +15.5 +13.3 87 +16 +16 1013.6 996.2 +15.5
07 24.06 З 1 12 км слаб. дождь н/о +15.6 +13.8 89 +17 +17 1013.5 996.2 0.2
08 24.06 ЮЗ 1 15 км в посл. час дождь н/о +15.9 +14.1 89 +17 +17 1013.8 996.5 0.2
09 24.06 З 1 16 км н/о +17.0 +14.5 85 +18 +18 1013.7 996.4 0.4
10 24.06 ЮЗ 1 17 км н/о +17.5 +14.8 84 +19 +19 1013.8 996.6
11 24.06 С 1 19 км н/о +18.3 +14.2 77 +20 +20 1013.8 996.6
12 24.06 С 1 20 км дымка н/о +19.7 +13.6 68 +23 +23 комфорт 1014.0 996.9
13 24.06 СЗ 2 20 км н/о +21.3 +13.7 62 +24 +24 комфорт 1013.4 996.4
14 24.06 СЗ 2 20 км н/о +23.2 +13.9 56 +27 +27 душно 1012.9 996.0
15 24.06 З 1 20 км н/о +22.6 +13.4 56 +26 +26 жарко 1013.1 996.2
16 24.06 З 1 20 км н/о +23.2 +13.1 53 +26 +26 жарко 1013.0 996.1
17 24.06 З 3 20 км в посл. час морось н/о +22.4 +12.3 53 +25 +25 комфорт 1013.1 996.1 0.0
18 24.06 ЮЗ 2 20 км дымка н/о +21.9 +13.0 57 +25 +25 комфорт 1013.5 996.5 +23.6 0.0
19 24.06 З 1 20 км н/о +21.5 +13.1 59 +24 +24 комфорт 1013.8 996.8
20 24.06 ЮЗ 1 20 км н/о +20.6 +13.1 62 +24 +24 комфорт 1014.2 997.1
21 24.06 Ю 1 20 км н/о +19.8 +13.7 68 +23 +23 комфорт 1014.9 997.8
22 24.06 ЮВ 1 19 км н/о +19.1 +13.9 72 +21 +21 комфорт 1015.5 998.3
23 24.06 ЮВ 1 18 км н/о +18.6 +14.1 75 +20 +20 1015.6 998.4
00 25.06 ЮВ 1 14 км н/о +18.0 +13.9 77 +19 +19 1015.6 998.4
01 25.06 З 1 20 км н/о +17.4 +14.1 81 +18 +18 1015.8 998.5
02 25.06 З 1 17 км н/о +16.2 +13.7 85 +18 +18 1015.5 998.2
03 25.06 ЮЗ 1 17 км н/о +15.1 +13.0 87 +16 +16 1015.4 998.0
04 25.06 З 1 19 км н/о +14.6 +12.8 89 +16 +16 1015.7 998.3
05 25.06 В 1 19 км н/о +14.0 +12.2 89 +15 +15 1016.1 998.6
06 25.06 ЮЗ 1 20 км н/о +13.8 +12.0 89 +15 +15 1016.4 998.9 +13.7
07 25.06 Ю 1 19 км н/о +14.7 +13.2 91 +15 +15 1016.6 999.1
08 25.06 З 1 19 км н/о +16.3 +14.0 86 +17 +17 1016.6 999.2
09 25.06 З 1 20 км н/о +18.3 +14.4 78 +20 +20 1016.4 999.2
10 25.06 З 1 20 км н/о +21.0 +15.3 70 +25 +25 комфорт 1016.0 998.9
11 25.06 С 1 20 км н/о +23.8 +9.8 41 +25 +25 комфорт 1015.7 998.8
12 25.06 З 2 20 км н/о +24.5 +9.6 39 +25 +25 комфорт 1015.5 998.6
13 25.06 ЮЗ 1 20 км н/о +25.1 +10.9 41 +26 +26 жарко 1015.0 998.2
14 25.06 В 1 20 км н/о +25.7 +11.5 41 +27 +27 жарко 1014.7 997.9
15 25.06 СВ 2 20 км н/о +26.5 +11.0 38 +27 +27 жарко 1014.3 997.6 0.0
16 25.06 В 1 20 км н/о +27.0 +11.9 39 +28 +28 жарко 1014.0 997.3
17 25.06 С 2 20 км н/о +27.0 +13.4 43 +29 +29 жарко 1013.2 996.5 0.0
18 25.06 В 1 20 км слаб. дождь н/о +25.6 +13.8 48 +28 +28 жарко 1014.2 997.4 +27.2 0.0
19 25.06 ЮВ 1 20 км слаб. дождь н/о +21.2 +17.6 80 +25 +25 комфорт 1015.2 998.2 3
20 25.06 З 1 20 км в посл. час дождь н/о +19.4 +15.3 77 +22 +22 комфорт 1015.4 998.3 0.0
21 25.06 З 1 20 км н/о +19.0 +15.9 82 +21 +21 комфорт 1015.4 998.2 3
22 25.06 ЮВ 1 20 км в посл. час дождь н/о +18.4 +16.4 88 +20 +20 1015.8 998.6 0.2
23 25.06 З 1 20 км н/о +17.8 +15.6 87 +19 +19 1016.0 998.8
00 26.06 ЮЗ 1 19 км дымка н/о +17.4 +15.6 89 +18 +18 1015.3 998.0 0.2
01 26.06 ЮЗ 1 18 км н/о +16.9 +15.4 91 +18 +18 1014.8 997.5
02 26.06 В 1 20 км н/о +16.5 +15.2 92 +18 +18 1014.0 996.7
03 26.06 З 1 19 км н/о +16.0 +14.7 92 +17 +17 1013.8 996.5
04 26.06 ЮЗ 1 19 км н/о +16.3 +15.0 92 +17 +17 1013.5 996.2 0.0
05 26.06 Ю 1 19 км н/о +16.3 +15.0 92 +17 +17 1013.2 995.9
06 26.06 ЮЗ 1 20 км дымка н/о +16.4 +14.9 91 +18 +18 1013.3 996.0 +16.0 0.0
07 26.06 СВ 1 20 км н/о +17.0 +15.2 89 +18 +18 1013.3 996.1 0.0

 

Местоположение метеостанции Оренсе (Испания): широта 42.33 долгота -7.87 высота над уровнем моря 128 м.

В архиве по умолчанию представлена погода в Оренсе за последнюю неделю. Архивные данные за месяц целиком и за предыдущие месяцы, начиная с января 2011 года, Вы можете получить, выбрав интересующий диапазон дат из раскрывающегося списка и нажав кнопку "Ввод!".


*Определитесь, кто Вы:
робот инопланетянин человек

Внимание! Время в таблицах - всемирное. Для получения местного времени необходимо прибавить поправку, которая равна 1 ч.

Смотрите также архив погоды в соседних городах и на ближайших метеорологических станциях:

Погода в Карбальино (Испания) (21 км)
Погода в Хинсо-де-Лимии (Испания) (30 км)
Погода в Побра-де-Тривес-Сане (Испания) (49 км)
Погода в Понтеведре (Испания) (63 км)
Погода в Виго (Испания) (64 км)
Погода в Падроне (Испания) (77 км)
Погода в Сантьяго (Испания) (78 км)
Погода в Сантьяго-де-Компостеле (Испания) (83 км)
Погода в Луго (Испания) (94 км)
Погода в Понферраде (Испания) (108 км)

Пояснения к столбцам:

Ветер - указаны скорость ветра в м/с - средняя за 10 мин, порывы в срок и между сроками (в фигурных скобках) и направление, откуда дует ветер: С - северный, СВ - северо-восточный, В - восточный, ЮВ - юго-восточный, Ю - южный, ЮЗ - юго-западный, З - западный, СЗ - северо-западный.
Видимость - горизонтальная дальность видимости в метрах или километрах. При видимости от 1 до 10 км при отсутствии осадков обычно наблюдается дымка, при ухудшении видимости до 1 км и менее - туман. В сухую погоду видимость может ухудшаться дымом, пылью или мглою.
Явления - указаны атмосферные явления, наблюдавшиеся в срок или в последний час перед сроком; фигурными скобками обозначены явления, наблюдавшиеся между сроками (за 1-3 часа до срока); квадратными скобками обозначены град или гололедные отложения с указанием их диаметра в мм.
Облачность - указаны через наклонную черту общая и нижняя облачность в баллах и высота нижней границы облаков в метрах; квадратными скобками обозначены формы облаков: Ci - перистые, Cs - перисто-слоистые, Cc - перисто-кучевые, Ac - высококучевые, As - высокослоистые, Sc - слоисто-кучевые, Ns - слоисто-дождевые, Cu - кучевые, Cb - кучево-дождевые. Подробнее классификацию облаков см. в Атласе облаков (PDF).
T - Температура воздуха - температура, измеренная на высоте 2 м над землей.
Td - Температура точки росы - температура, при понижении до которой содержащийся в воздухе водяной пар достигнет насыщения.
f - Относительная влажность воздуха - влажноcть воздуха, измеренная на высоте 2 м над землей.
Te - Эффективная температура - температура, которую ощущает одетый по сезону человек в тени. Характеристика душности погоды. При расчете учитывается влияние влажности воздуха и скорости ветра на теплоощущения человека.
Tes - Эффективная температура на солнце - температура, которую ощущает человек, с поправкой на солнечный нагрев. Характеристика знойности погоды. Зависит от высоты солнца над горизонтом, облачности и скорости ветра. Ночью, в пасмурную погоду, а также при ветре 12 м/с и более поправка равна нулю.
P - Атмосферное давление - приведенное к уровню моря атмосферное давление.
Po - Атмосферное давление - измеренное на уровне метеостанции атмосферное давление.
Tmin - Минимальная температура - минимум температуры воздуха на высоте 2 м над землей.
Tmax - Максимальная температура - максимум температуры воздуха на высоте 2 м над землей.
R - Количество осадков - Количество выпавших осадков за период времени, мм. При наведении курсора мыши на число - период времени, за который выпало указанное количество осадков.
R24 - Количество осадков - Количество выпавших осадков за 24 часа, мм.
S - Снежный покров - Высота снежного покрова, см. При наведении курсора мыши на число - состояние снежного покрова и степень покрытия местности в баллах.